Home > Weather > Kampala > Past weeks

Flag for Uganda Past Weather in Kampala, Uganda — Yesterday and Last 2 Weeks

Now
66 °F

Passing clouds.


Feels Like: 66 °F
Forecast: 52 / 82 °F
Wind: 7 mph from West

Location: Entebbe Airport

Current Time: Jun 30, 2016 at 4:51:07 AM

Latest Report: Jun 30, 2016 at 4:00 AM


Visibility: 6 mi

Pressure: 30.09 "Hg (26.06 "Hg at 1230m altitude)

Humidity: 94%

Dew Point: 64 °F

Location of KampalaLocation

Past Weather in Kampala — Graph

°F

Kampala Temperature Yesterday

Maximum temperature yesterday: 79 °F (at 1:00 PM)
Minimum temperature yesterday: 64 °F (at 6:00 AM)
Average temperature yesterday: 72 °F

High & Low Weather Summary for the Past Weeks

 TemperatureHumidityPressure
High79 °F (Jun 16, 3:00 PM)100% (Jun 18, 9:00 PM)30.21 "Hg (Jun 18, 9:00 PM)
Low64 °F (Jun 18, 9:00 PM)38% (Jun 16, 8:00 PM)30.01 "Hg (Jun 24, 5:00 PM)
Average71 °F80%30.11 "Hg
* Reported Jun 15 3:00 AM — Jun 30 3:00 AM, Kampala, Weather by CustomWeather, © 2016

Note: Actual official high and low records may vary slightly from our data, if they occured in-between our weather recording intervals... More about our weather records

Advertising

Kampala Weather History for the Previous 24 Hours

Scroll right to see more
 ConditionsComfort  
Time TempWeatherWind HumidityBarometerVisibility
3:00 AM
Thu, Jun 30
72 °FPassing clouds.6 mph73%30.09 "HgN/A
2:00 AM72 °FPassing clouds.No wind73%30.09 "HgN/A
1:00 AM70 °FPassing clouds.No wind78%30.12 "HgN/A
12:00 AM72 °FPassing clouds.5 mph73%30.15 "HgN/A
10:00 PM
Wed, Jun 29
72 °FPassing clouds.10 mph65%30.12 "Hg6 mi
9:00 PM73 °FPassing clouds.9 mph61%30.12 "HgN/A
8:00 PM72 °FPassing clouds.7 mph78%30.09 "HgN/A
7:00 PM73 °FPassing clouds.7 mph69%30.09 "HgN/A
6:00 PM75 °FPassing clouds.8 mph61%30.09 "HgN/A
5:00 PM77 °FPassing clouds.9 mph57%30.09 "HgN/A
4:00 PM77 °FPassing clouds.12 mph61%30.09 "HgN/A
3:00 PM79 °FPassing clouds.7 mph61%30.12 "HgN/A
2:00 PM77 °FPassing clouds.8 mph61%30.15 "HgN/A
1:00 PM79 °FScattered clouds.12 mph61%30.15 "HgN/A
12:00 PM77 °FScattered clouds.12 mph65%30.18 "HgN/A
11:00 AM77 °FScattered clouds.8 mph69%30.18 "Hg5 mi
10:00 AM73 °FPassing clouds.5 mph74%30.18 "Hg4 mi
9:00 AM70 °FPassing clouds.5 mph83%30.15 "Hg4 mi
8:00 AM64 °FPassing clouds.5 mph94%30.15 "Hg6 mi
7:00 AM64 °FPassing clouds.7 mph94%30.12 "Hg6 mi
6:00 AM64 °FPassing clouds.8 mph94%30.09 "Hg6 mi
5:00 AM66 °FPassing clouds.6 mph94%30.09 "HgN/A
Weather by CustomWeather, © 2016

See weather overviewHow to use our weather pages